GFSSE_700_spd_057.txt.gz
Wind_Speed
13 15 16 14 8 15 13 16 13 24 22 23 20 17 12 9 7 9 10 11 11 11 12 13 13 13 12 12 12 13 14 14 15 15 15 16 16 16 16 15 14 14 14
14 14 17 13 19 20 18 21 14 17 21 19 16 19 14 12 10 9 10 11 11 11 12 12 12 12 12 13 12 12 13 14 15 15 15 16 17 16 15 15 14 13 12
14 16 14 16 21 22 20 18 18 22 21 21 21 24 18 14 13 12 13 12 12 12 12 11 12 11 12 12 12 13 14 15 15 15 15 15 15 14 13 13 12 12 11
17 19 19 21 21 24 20 21 18 21 19 22 23 23 20 16 14 14 14 14 13 13 13 12 10 10 9 9 10 11 12 12 13 12 12 13 14 14 14 13 11 11 10
15 21 23 21 23 23 22 21 21 25 16 21 27 21 19 18 17 15 15 16 15 14 13 11 10 10 10 9 9 9 10 9 11 13 13 14 13 14 12 10 9 8 8
17 18 21 23 25 26 24 25 22 29 23 22 19 28 19 21 19 17 16 15 15 15 11 10 9 9 9 10 10 10 10 10 12 13 13 12 11 11 10 9 7 6 7
19 23 23 28 30 31 29 29 31 26 24 24 20 24 22 24 22 19 18 17 15 12 10 10 11 11 11 11 11 11 10 12 13 12 10 10 10 11 9 9 8 9 9
22 24 27 30 33 31 30 30 34 31 29 28 27 27 29 27 23 21 19 20 16 12 11 11 11 12 12 12 12 11 12 13 12 11 11 10 11 10 10 11 12 11 10
17 23 27 32 36 39 37 39 35 34 34 31 31 28 26 28 25 23 22 20 17 15 13 13 13 14 14 13 13 12 12 11 11 11 11 10 12 11 10 9 9 9 9
13 20 24 30 40 39 45 44 37 40 42 34 35 28 26 28 26 26 24 20 17 16 15 14 15 15 16 15 15 13 11 11 12 12 11 10 10 9 8 8 9 8 7
16 20 21 27 39 45 38 39 39 36 38 36 33 31 31 30 29 28 24 20 18 16 17 18 16 16 16 16 14 12 12 11 11 10 10 10 10 9 9 9 9 8 7
16 19 15 1 13 24 23 21 34 40 32 47 40 36 35 32 29 28 25 22 21 19 19 18 17 15 15 14 13 13 14 12 11 10 10 10 9 9 10 10 8 7 6
17 17 12 10 5 4 4 7 25 38 41 39 36 39 35 33 32 29 27 26 23 20 18 17 18 17 15 13 13 13 13 12 11 10 10 9 8 8 9 8 5 4 4
17 14 14 13 10 10 6 5 23 45 49 41 43 39 37 35 32 26 25 23 21 19 18 17 17 9 11 13 14 13 13 12 11 11 9 7 7 7 7 6 6 5 4
13 16 15 16 12 10 7 3 19 40 37 44 41 38 38 35 30 26 24 23 20 17 15 14 10 13 14 13 13 14 13 10 9 8 7 6 6 5 4 4 4 6 5
16 15 16 10 6 8 6 3 19 44 48 47 50 40 38 35 29 23 25 22 18 15 17 12 13 16 16 14 12 12 11 8 7 5 4 4 4 4 4 5 6 5 6
15 16 13 15 10 13 6 10 16 41 45 46 48 43 47 42 25 26 25 20 17 20 13 10 14 13 14 14 14 12 11 9 7 4 2 2 2 5 9 10 9 8 8
15 17 12 18 12 14 12 11 18 36 38 37 48 52 50 37 28 29 24 20 19 18 13 11 9 13 15 15 14 13 12 9 7 6 2 5 7 9 11 12 12 12 13
3 13 15 21 18 15 16 18 17 32 37 36 42 52 43 38 34 30 25 20 21 18 15 13 10 9 14 17 17 15 14 12 9 6 7 10 11 14 14 16 15 14 15
3 7 16 27 28 27 24 23 20 26 36 29 37 41 39 41 37 32 28 25 25 21 17 17 13 11 14 18 18 16 14 14 9 10 12 13 16 18 18 18 19 19 18
6 8 17 27 27 29 25 21 29 26 34 32 33 36 37 38 37 34 31 28 28 23 19 18 17 17 17 19 20 18 17 12 11 13 14 15 16 19 21 19 21 21 20
8 12 11 27 28 25 26 22 28 24 39 39 37 36 39 37 38 37 36 32 28 27 23 22 22 17 18 20 20 18 17 15 14 15 16 18 20 20 21 21 23 24 24
7 12 7 15 27 22 20 29 31 32 41 42 42 40 40 41 44 44 39 38 35 31 26 23 23 19 20 21 21 21 20 18 16 17 18 16 21 21 16 21 23 25 27
3 8 9 5 16 29 16 20 27 29 26 35 37 47 47 49 50 51 48 50 39 31 32 27 24 21 23 23 24 23 22 20 21 21 21 21 17 21 20 23 23 26 26
2 4 7 9 8 14 19 24 25 29 26 35 33 48 38 49 50 52 52 33 37 36 28 33 28 24 26 27 29 29 28 26 30 24 25 23 22 23 26 26 27 22 26
6 5 5 5 8 7 9 13 17 28 28 32 29 29 42 39 32 44 48 29 34 35 31 31 30 30 29 31 32 33 33 32 32 26 26 27 26 28 26 24 29 26 27

GFSSE_700_spd_060.txt.gz
Wind_Speed
11 10 12 11 11 15 9 22 13 12 13 13 10 13 11 11 8 7 11 13 12 11 13 13 13 12 12 12 12 12 13 13 13 12 12 12 12 12 12 11 10 10 10
18 15 16 17 16 13 6 14 19 16 16 17 16 17 17 17 10 8 11 12 12 12 13 13 11 11 10 11 11 13 13 14 14 14 14 15 15 15 14 14 12 12 12
12 19 19 19 19 19 17 11 18 20 19 20 16 17 14 15 11 9 11 14 14 14 14 13 12 11 11 12 12 13 13 14 15 15 14 15 15 15 14 13 12 10 10
17 19 22 23 23 23 20 22 22 20 20 19 17 19 13 12 15 12 12 15 14 14 13 12 12 11 12 13 14 14 14 15 15 14 12 13 13 14 13 12 12 10 9
16 23 25 27 27 27 25 27 26 22 24 23 22 22 13 12 14 14 14 15 14 14 14 14 14 13 13 14 13 13 13 13 13 13 12 12 12 12 12 10 8 8 7
20 20 28 31 32 29 31 28 27 25 27 22 23 22 16 13 15 16 17 15 16 15 14 14 12 12 12 12 11 12 11 10 13 13 13 11 9 10 9 8 8 7 7
22 20 23 30 30 31 34 31 28 28 28 21 22 22 18 12 17 17 17 17 16 15 15 14 13 11 11 11 11 11 11 13 14 13 11 9 10 9 8 7 8 8 8
21 24 25 34 33 36 35 34 31 31 33 26 25 19 17 17 17 19 18 18 17 17 15 13 12 11 12 11 11 10 11 13 12 11 10 10 9 8 9 10 9 9 9
19 24 25 37 36 43 38 37 32 35 36 31 28 21 19 20 18 19 20 19 19 17 15 13 12 11 11 12 12 12 12 12 11 11 10 9 10 10 9 7 7 8 8
18 20 26 32 34 42 33 40 35 34 37 33 31 26 23 21 21 22 22 20 19 16 15 14 14 13 14 15 14 14 13 13 13 11 10 10 10 8 7 7 7 7 7
17 21 22 22 21 28 26 35 34 40 40 40 32 29 26 23 25 25 24 23 20 18 15 16 14 15 15 15 15 14 13 13 13 10 10 10 9 7 7 7 7 7 7
18 18 21 19 23 26 38 34 41 44 40 46 36 31 30 30 30 27 27 24 21 19 20 18 16 16 15 14 15 15 14 14 13 11 10 10 9 8 7 7 7 6 6
24 19 21 19 15 4 17 37 31 31 40 32 41 39 35 33 33 31 30 27 25 24 23 21 18 17 16 15 15 14 14 12 12 11 11 10 8 7 7 6 6 5 4
17 22 18 18 13 6 4 6 13 26 41 39 38 42 41 34 32 33 30 28 27 27 23 19 18 17 14 14 14 14 13 12 12 12 11 9 8 6 6 6 4 3 1
12 18 19 20 13 9 9 11 12 34 41 35 38 44 45 34 35 32 28 29 27 25 22 20 19 15 12 14 14 15 15 14 12 11 9 8 6 6 6 3 1 0 2
11 14 16 13 12 11 13 12 15 28 44 41 43 43 35 38 35 31 30 28 26 25 22 21 19 15 13 15 15 15 15 14 13 10 8 7 7 6 4 2 3 5 6
11 16 11 11 12 12 14 9 11 28 47 44 40 39 38 37 38 33 32 29 26 23 21 20 14 11 15 16 16 17 15 14 13 11 8 8 5 4 4 4 6 7 7
6 11 14 13 16 11 12 8 7 30 40 35 37 40 40 37 35 32 30 27 24 21 21 16 11 15 17 17 17 17 16 15 13 12 10 7 7 8 7 9 11 12 15
1 6 15 17 17 16 15 10 7 35 41 41 43 45 46 47 42 33 28 26 23 24 20 17 16 14 17 18 18 17 16 16 15 14 12 10 10 9 12 14 15 16 18
3 3 9 15 21 17 16 15 13 36 36 44 41 48 44 47 54 36 30 27 25 24 22 20 16 15 15 16 19 18 17 16 17 15 14 13 12 13 14 17 19 20 22
8 9 10 17 23 25 18 16 18 19 36 38 35 39 49 43 36 34 33 30 27 26 21 19 17 14 15 15 18 19 19 20 19 18 16 16 15 16 17 18 20 22 21
8 12 15 17 24 28 23 24 19 19 23 33 32 39 40 43 37 37 36 33 28 27 25 23 21 18 17 17 18 19 21 22 21 18 18 16 16 19 21 19 19 24 24
7 9 10 8 19 24 26 24 22 29 26 30 33 35 35 43 42 40 37 33 29 28 28 25 22 20 20 19 18 20 22 23 22 20 20 19 21 22 22 22 18 21 25
7 5 5 1 17 22 22 26 28 26 28 27 33 35 38 46 45 45 40 37 36 32 31 29 25 26 23 21 22 21 23 24 23 23 24 24 24 25 23 24 24 26 27
8 5 1 6 10 19 26 23 28 30 29 30 38 38 42 42 46 47 45 40 39 40 42 38 36 31 24 24 24 25 26 28 29 31 33 34 33 23 22 23 27 25 25
10 7 3 5 9 10 15 19 20 29 30 32 40 34 42 44 47 50 45 48 46 46 48 43 46 37 27 26 26 26 29 32 34 35 40 38 39 29 25 28 25 27 26

GFSSE_700_spd_063.txt.gz
Wind_Speed
14 10 16 16 14 14 14 14 19 16 12 8 6 8 5 5 7 10 11 12 12 11 12 12 12 11 11 11 11 11 12 11 11 11 11 12 11 10 9 10 9 9 8
13 11 14 16 17 17 17 11 19 18 15 11 11 12 8 7 6 8 11 13 11 11 11 11 11 11 12 13 13 14 13 13 12 11 10 11 11 11 10 10 9 10 10
14 16 17 18 19 21 19 15 15 16 16 13 11 12 11 7 5 7 11 13 12 12 12 12 12 11 12 13 14 14 15 14 13 12 12 12 13 12 11 11 10 9 9
16 17 19 22 23 25 24 21 18 18 19 19 12 13 12 11 7 6 13 14 13 13 13 13 12 12 11 11 12 14 15 15 14 13 12 12 12 12 11 10 9 9 8
18 20 20 25 27 28 28 24 24 20 20 19 16 17 14 12 9 9 12 14 14 14 14 13 13 12 12 12 13 13 13 13 12 11 11 11 11 12 11 10 9 8 7
19 21 21 25 30 31 28 29 27 26 25 21 19 18 15 12 10 10 11 14 15 15 15 14 14 13 13 13 13 13 13 13 13 12 13 12 11 10 9 8 7 7 6
16 20 22 21 30 34 33 30 32 33 27 25 20 19 17 15 11 12 13 16 15 16 15 15 15 14 15 15 14 13 12 13 13 12 10 9 9 8 8 7 7 7 7
15 19 22 21 24 36 38 35 37 35 29 26 21 20 20 14 14 15 16 16 17 16 17 16 15 15 15 14 13 12 14 14 12 11 10 9 8 8 9 9 9 8 8
15 16 20 26 29 39 36 31 36 32 31 28 25 23 18 16 16 14 17 18 18 18 17 16 15 14 15 14 13 11 13 14 13 12 11 9 10 10 9 8 7 8 8
17 19 21 24 25 36 32 46 28 31 35 30 28 25 19 18 24 18 19 19 18 19 17 15 14 14 14 14 13 13 13 13 13 12 11 10 10 8 7 7 8 8 7
19 19 22 22 24 29 25 35 34 45 40 32 32 25 21 20 21 22 21 22 21 19 17 15 13 13 15 15 14 14 15 14 13 12 11 10 9 8 8 8 8 8 7
22 23 21 19 19 21 22 35 42 37 46 40 35 28 26 25 25 27 24 24 22 20 18 16 15 15 15 15 16 16 15 15 14 12 11 11 9 7 7 7 7 7 7
25 27 25 21 19 20 22 19 34 25 31 35 36 32 31 29 32 27 28 27 24 21 20 18 16 16 15 15 16 16 15 14 13 13 12 11 9 8 8 8 7 6 6
20 18 23 20 17 16 12 11 22 30 35 37 37 32 32 33 32 32 31 28 25 23 21 20 19 17 16 15 15 14 15 15 13 13 13 11 9 7 7 7 6 5 3
12 15 20 21 18 12 8 2 19 16 27 47 45 38 37 40 34 34 31 27 25 24 24 21 19 17 17 17 15 15 15 15 14 14 12 10 9 8 7 6 4 2 1
7 16 17 18 16 14 12 8 10 10 19 36 35 38 39 38 35 33 32 29 27 26 24 21 19 18 18 16 15 15 15 14 14 13 12 11 10 9 7 4 3 3 5
7 12 14 14 14 13 12 12 11 15 26 38 36 40 40 48 45 35 32 31 30 28 26 24 21 19 18 17 17 17 17 16 15 13 12 11 10 9 7 6 6 5 6
4 8 13 14 14 13 12 14 13 14 25 31 37 39 41 49 47 32 31 33 30 27 26 24 24 21 18 17 18 19 19 17 15 14 13 13 11 10 8 9 9 9 9
5 5 7 14 13 15 15 13 11 12 25 37 43 41 34 46 51 35 33 33 32 28 27 26 24 20 18 18 18 19 19 18 17 16 15 14 13 13 12 11 14 15 16
6 6 6 12 15 17 18 14 10 14 24 41 41 33 41 37 40 39 36 34 31 28 27 26 25 20 20 19 18 19 20 20 18 18 18 16 15 15 16 15 15 16 19
10 8 9 13 17 21 18 17 14 14 33 40 32 34 45 45 44 52 41 34 30 26 27 24 21 21 21 19 21 21 22 21 20 20 20 18 19 17 19 20 20 19 19
12 12 12 13 20 24 22 16 13 10 30 35 34 36 44 43 43 42 41 37 32 35 29 27 26 23 22 20 21 18 20 21 22 20 20 21 20 20 20 22 20 22 25
12 12 14 14 14 21 27 24 21 18 30 33 35 34 35 52 47 47 42 39 39 30 32 29 27 24 22 21 20 20 16 15 15 20 23 23 22 22 23 24 22 24 21
13 11 12 12 8 18 21 26 27 20 24 19 24 31 35 32 41 56 54 47 38 37 34 31 30 28 26 29 24 21 21 19 16 21 22 23 26 23 25 26 26 26 24
13 11 8 8 3 13 18 21 27 23 23 24 25 28 30 35 37 47 48 44 45 43 37 34 35 36 33 29 27 24 25 25 25 27 28 31 30 29 33 34 30 32 28
12 11 8 4 3 9 12 17 18 22 24 27 30 30 31 33 39 40 43 48 45 46 39 40 39 37 37 34 30 29 27 27 28 30 32 34 37 37 37 41 42 37 32

GFSSE_700_spd_069.txt.gz
Wind_Speed
5 5 8 10 11 13 18 20 18 17 16 14 13 14 12 11 13 16 17 17 16 12 12 12 11 11 11 11 10 10 8 8 8 10 12 13 12 9 9 10 9 9 8
4 8 7 8 13 13 18 18 17 19 15 13 14 16 14 11 13 15 16 16 15 13 13 12 11 12 11 11 10 10 10 10 10 10 12 14 13 12 12 11 10 8 9
11 13 12 10 12 18 21 20 20 21 20 17 17 15 15 12 11 15 17 17 15 14 13 13 12 12 11 11 11 12 12 11 11 12 12 12 12 12 12 11 11 10 10
23 18 17 15 14 19 21 22 24 24 24 20 19 18 15 14 12 14 17 16 15 13 14 14 13 13 13 14 15 15 15 15 14 13 13 13 12 12 12 12 10 9 8
32 25 22 21 19 20 23 25 28 24 27 24 22 18 17 15 13 11 15 17 15 14 14 13 13 13 13 14 15 15 15 14 13 14 13 12 12 11 11 11 9 8 7
26 28 23 24 24 24 24 28 30 29 30 26 25 21 20 19 17 15 14 16 16 14 15 14 13 14 16 16 17 17 15 14 13 13 13 12 11 11 11 10 10 9 8
21 21 21 20 23 24 27 29 32 32 31 25 26 24 26 20 16 13 14 17 19 17 15 15 15 15 17 17 15 14 13 15 15 14 14 13 12 10 9 8 8 8 8
20 18 18 19 21 22 26 30 34 39 35 26 29 37 35 24 18 13 14 17 18 19 18 18 17 17 17 15 15 14 13 13 16 16 15 13 11 9 9 8 9 8 9
19 17 20 19 19 21 27 29 36 37 36 34 32 34 28 24 24 22 14 14 17 19 19 18 18 17 16 17 16 13 12 13 16 16 14 12 9 8 9 9 9 8 8
19 18 18 18 20 20 25 28 30 33 31 36 39 32 35 23 23 22 23 18 19 19 20 19 19 18 17 17 16 13 14 16 16 15 14 12 11 11 10 9 8 9 8
18 19 21 21 20 24 25 26 28 28 30 36 39 28 30 28 25 24 24 20 21 22 21 20 21 19 18 18 16 14 15 15 16 15 14 13 11 11 9 9 9 8 8
22 21 22 20 22 24 24 23 26 27 28 27 42 38 45 29 28 25 28 24 23 23 22 22 21 20 20 19 18 18 15 16 16 15 14 12 11 10 10 9 9 9 9
24 27 23 21 21 23 20 20 23 29 36 35 29 30 40 34 29 26 30 31 28 27 26 24 22 20 20 20 20 18 15 16 16 16 14 13 11 11 10 10 10 11 10
24 27 23 15 13 18 18 17 20 21 30 29 25 42 42 36 32 32 30 32 30 29 26 24 22 22 22 22 21 16 12 16 17 15 13 12 11 11 11 11 12 11 10
20 23 15 7 7 15 14 14 14 16 13 25 22 42 43 37 32 29 34 29 27 26 26 24 24 25 25 22 20 17 14 16 16 16 15 14 12 10 10 11 12 10 9
15 17 10 3 9 12 11 12 13 7 11 19 28 48 45 37 33 28 30 32 28 28 26 24 25 26 25 22 21 18 15 16 18 16 15 14 12 11 11 12 11 10 8
12 14 10 4 6 9 10 11 8 2 8 22 33 39 35 36 32 28 30 31 31 29 26 26 26 26 25 23 23 19 17 14 16 17 16 15 13 13 12 11 11 8 7
12 10 10 7 8 9 9 11 11 9 9 22 36 36 31 29 34 31 31 32 31 30 28 27 27 27 25 24 23 19 15 13 16 17 16 15 15 14 13 12 9 9 7
12 10 9 8 8 10 11 12 12 14 12 18 16 26 35 32 33 32 36 34 32 31 30 29 29 27 26 24 21 19 17 16 17 16 16 16 14 13 13 12 11 10 9
10 11 11 10 9 9 12 13 14 16 15 15 19 30 35 38 38 30 36 38 34 31 31 31 28 25 25 24 23 21 20 18 17 18 18 16 15 16 17 16 13 13 12
10 9 11 12 10 10 13 15 16 16 16 19 22 35 34 37 36 29 34 43 38 38 34 31 29 28 28 26 23 23 22 21 19 18 18 17 19 19 18 16 16 17 16
10 10 9 12 13 14 14 16 19 18 17 16 23 33 37 36 36 32 35 44 48 39 40 38 33 33 31 25 24 22 23 21 20 20 20 19 19 20 20 20 19 18 18
11 9 8 10 14 17 14 13 17 16 16 18 27 31 32 31 35 39 32 40 37 43 39 35 34 32 32 25 24 19 20 20 16 21 22 22 23 24 22 23 20 20 20
11 9 6 9 12 14 13 8 15 12 12 13 22 29 34 36 31 35 29 42 43 49 49 30 29 30 31 32 33 27 26 21 22 23 23 24 26 26 25 24 25 23 22
11 8 6 6 9 10 8 6 13 15 13 10 12 21 32 28 26 32 35 44 49 47 41 37 36 37 36 39 35 27 27 26 25 27 23 24 29 24 22 21 22 25 27
10 9 6 4 5 7 5 1 5 15 14 12 15 18 20 23 27 28 29 43 53 49 46 44 36 35 40 40 35 31 31 29 28 28 30 29 28 26 25 27 29 29 28

GFSSE_700_spd_072.txt.gz
Wind_Speed
2 2 4 8 11 9 16 19 20 19 19 18 15 18 16 17 18 19 18 16 13 12 11 12 13 14 15 13 14 14 10 8 10 13 15 13 11 11 11 12 12 12 12
4 6 6 6 7 9 15 17 20 20 20 19 18 16 17 16 18 20 20 18 16 14 13 13 13 14 14 14 14 14 13 10 11 12 14 14 13 12 12 12 10 9 9
8 12 14 12 11 14 16 17 22 20 22 21 20 20 17 17 16 18 19 18 16 15 14 15 15 15 15 15 14 12 11 12 13 12 12 14 13 11 12 10 8 7 6
20 24 24 19 16 16 19 22 25 23 26 26 23 22 19 18 17 16 18 19 18 15 16 17 16 16 15 15 15 14 14 13 12 13 13 12 10 11 11 10 9 8 8
26 28 24 25 22 20 22 26 28 27 28 27 25 24 22 20 18 16 18 20 19 17 18 17 17 16 15 14 14 13 13 13 14 14 12 11 11 11 10 10 9 8 7
21 21 20 21 24 24 26 29 31 30 30 29 27 27 25 22 20 19 19 20 20 20 19 18 16 16 16 14 13 13 11 11 14 14 13 12 11 10 10 10 9 7 7
23 19 19 17 20 24 28 30 33 34 34 32 31 30 29 25 21 20 19 20 22 20 18 18 17 16 15 14 13 11 13 14 14 15 14 13 12 11 11 9 7 6 7
24 21 19 19 20 20 24 28 33 36 38 37 35 35 37 31 28 23 20 21 23 21 21 19 18 17 16 14 13 15 16 16 15 15 15 14 13 11 10 8 7 7 7
22 21 19 18 20 21 22 27 31 36 41 38 34 24 36 26 36 23 21 20 20 22 22 21 18 17 17 15 15 17 18 16 15 16 16 14 13 12 10 8 8 9 8
22 21 21 21 22 22 24 25 29 30 36 33 24 27 30 21 27 21 18 20 22 23 22 20 19 20 18 15 16 17 17 17 17 17 15 14 13 11 11 11 10 9 8
22 21 18 20 25 25 25 27 26 28 30 34 31 22 27 36 29 26 25 20 21 25 24 22 20 20 18 18 16 16 15 17 16 15 15 13 12 11 10 10 10 9 9
23 18 18 21 24 26 27 28 26 25 27 27 27 27 26 36 35 26 27 25 27 25 25 23 23 23 20 19 16 16 16 15 15 15 14 12 11 10 11 11 10 10 10
22 20 22 22 21 24 28 27 24 22 26 27 26 29 21 34 39 31 34 33 26 28 28 29 27 25 20 18 17 16 17 16 16 16 15 12 10 11 10 10 11 11 12
22 20 21 21 17 16 22 22 22 23 25 26 32 34 34 34 39 33 33 34 29 29 29 28 26 24 22 20 16 16 18 17 18 17 14 13 12 11 10 10 11 12 12
20 18 18 17 10 10 19 21 20 22 24 26 34 39 41 53 40 36 34 37 35 33 31 30 27 25 25 22 18 18 17 18 20 18 16 15 12 10 10 10 12 12 11
17 16 15 9 7 9 15 17 17 17 24 28 29 28 32 45 42 37 31 33 35 32 33 28 26 27 27 24 19 20 21 21 21 19 18 16 14 13 12 13 13 12 10
16 15 11 9 8 11 12 15 14 14 15 20 19 31 44 44 40 34 33 33 31 33 30 29 29 29 27 26 24 21 20 20 19 19 19 18 15 14 13 13 13 12 10
15 16 11 9 8 10 12 14 13 12 6 16 22 36 45 43 37 33 30 35 31 34 31 32 31 30 28 26 23 21 21 17 19 20 19 18 17 15 14 14 12 11 10
16 15 12 9 6 8 12 14 14 11 6 19 24 40 42 39 35 31 30 33 36 35 34 33 32 29 30 29 25 21 19 17 19 20 19 18 17 18 17 15 13 11 9
16 15 13 9 7 6 8 12 13 13 11 18 24 29 28 33 36 32 31 34 37 37 36 35 32 31 29 29 27 24 21 18 18 17 18 18 17 18 16 15 14 12 11
16 14 14 10 7 8 9 12 16 15 17 17 18 21 27 29 34 36 37 36 37 39 38 35 34 33 32 31 29 28 25 21 20 20 20 19 18 18 18 17 16 16 14
16 14 13 12 9 9 10 11 15 17 17 17 22 22 31 37 41 33 37 35 40 38 38 38 37 36 34 33 31 28 27 25 22 23 23 21 20 20 21 21 20 18 17
14 12 13 11 9 11 10 9 11 17 17 23 22 21 35 39 40 38 36 31 42 43 42 38 36 35 35 34 31 29 30 27 23 26 24 23 21 23 23 23 22 20 20
10 11 11 11 8 9 8 4 7 12 14 15 20 24 39 37 35 36 34 32 36 44 45 43 40 38 32 34 34 32 28 22 35 28 23 23 26 26 26 25 23 23 22
11 10 10 9 8 6 4 0 9 14 14 11 14 25 33 36 37 33 34 38 36 46 49 47 47 44 34 33 35 33 29 30 37 28 25 21 23 24 24 23 23 23 24
16 11 9 8 6 5 2 3 7 13 13 13 13 15 27 25 29 31 33 41 33 42 45 44 39 43 38 30 32 32 31 38 33 25 26 26 26 26 24 25 26 23 22

GFSSE_700_spd_075.txt.gz
Wind_Speed
11 8 7 8 8 7 6 12 16 20 21 21 22 24 24 21 18 18 19 15 14 15 15 14 14 13 13 13 14 15 12 11 10 15 14 13 12 12 12 12 12 11 12
8 4 4 6 9 7 8 14 18 21 22 22 22 22 19 19 18 19 18 17 16 15 14 14 14 14 14 15 16 15 11 10 13 15 13 13 12 11 12 12 11 10 12
7 6 10 12 13 12 13 15 18 20 23 23 23 23 20 22 18 17 17 18 16 15 14 15 15 16 18 15 16 15 12 11 13 16 17 12 11 10 12 10 10 9 8
14 17 22 23 21 17 17 20 21 22 25 25 24 23 23 20 20 18 17 18 18 17 16 16 17 18 17 16 15 15 14 12 12 13 13 12 9 9 9 9 8 7 7
18 22 20 18 20 21 21 23 24 24 26 27 27 26 25 21 21 19 19 19 20 19 18 18 18 18 18 17 15 14 12 12 12 11 11 12 10 9 10 9 9 7 6
16 16 20 16 15 18 22 25 26 28 30 28 29 28 27 25 21 20 20 21 21 20 19 19 18 18 16 14 12 11 11 10 11 12 12 11 11 10 11 10 8 7 6
18 19 21 17 16 17 19 24 27 30 32 31 33 32 29 28 24 21 20 22 22 21 21 21 20 18 15 13 11 11 11 12 11 13 13 13 12 10 10 9 8 7 6
19 18 19 18 17 17 18 20 27 29 32 34 37 37 35 31 28 25 22 21 22 23 23 22 22 17 14 14 13 12 13 13 14 15 15 13 12 12 11 9 8 7 6
16 18 19 20 20 19 18 19 22 26 32 36 44 40 39 41 36 23 23 22 21 25 24 23 20 17 16 14 14 14 13 13 15 15 14 13 13 11 10 9 8 7 7
19 23 22 21 22 22 23 21 21 25 33 37 26 22 41 39 33 34 32 22 23 25 24 23 22 19 16 15 15 15 14 13 15 15 15 13 12 11 8 8 8 9 9
22 23 24 22 21 25 25 26 23 26 28 34 39 38 21 22 30 32 25 25 25 25 24 23 22 20 20 19 18 17 14 16 16 16 14 12 10 9 9 10 10 10 10
22 21 25 24 24 25 27 28 27 25 27 29 32 34 29 21 19 31 32 25 26 25 24 24 24 21 21 21 19 18 18 16 17 16 14 12 11 10 10 10 9 10 10
21 22 25 24 25 24 23 26 27 26 26 27 27 27 23 24 25 22 36 33 30 26 27 26 24 23 23 19 16 16 18 18 17 16 14 13 11 11 11 10 10 9 10
24 22 24 23 23 23 19 19 24 25 25 26 26 26 25 26 25 33 39 34 30 30 29 27 27 24 21 21 20 18 18 15 16 17 17 14 13 12 12 10 10 10 10
22 21 22 21 20 19 16 13 17 21 21 22 23 26 27 27 24 36 40 36 34 34 33 33 30 25 24 21 20 20 17 17 18 18 17 16 15 13 12 11 11 12 12
23 20 20 18 17 15 12 10 15 18 18 21 25 28 27 31 31 24 39 41 37 33 32 31 29 26 25 23 22 21 20 19 18 19 18 17 16 13 11 11 12 12 12
16 18 18 17 15 14 13 11 13 17 20 22 28 36 38 37 36 33 42 38 38 36 31 30 30 25 24 23 23 24 19 18 19 21 20 18 16 14 13 12 12 12 11
17 18 18 17 14 14 12 14 17 19 21 22 17 22 25 33 37 44 40 38 39 36 34 35 32 30 28 24 23 22 21 20 21 23 22 20 18 16 14 14 13 13 12
16 19 18 16 13 14 14 14 16 18 19 19 18 23 26 31 40 43 38 35 37 37 37 36 34 31 27 24 22 21 22 20 20 22 22 20 19 18 16 16 15 14 13
18 18 18 16 13 13 14 15 14 15 15 18 11 19 31 37 43 43 37 34 34 36 37 36 36 31 26 24 24 23 23 21 21 22 22 20 19 18 18 17 16 14 13
20 16 17 16 14 14 13 14 16 14 13 10 13 10 32 37 40 41 34 32 36 35 37 36 36 31 30 30 27 29 28 23 21 21 23 22 19 18 18 18 16 15 15
14 15 16 16 14 14 14 14 15 15 14 14 10 15 19 30 37 39 34 32 33 36 37 37 36 33 32 31 31 29 28 28 26 24 25 23 21 22 21 20 19 18 17
13 11 14 15 13 13 14 15 14 15 18 19 18 19 19 23 20 33 37 35 35 36 36 36 35 33 33 33 34 33 33 32 28 27 24 24 26 26 24 22 21 22 21
16 12 11 13 12 10 11 14 11 11 16 15 16 19 20 26 35 30 39 40 42 39 40 38 37 34 34 36 35 35 31 32 30 27 28 30 31 32 27 23 24 24 24
15 13 10 11 11 8 8 10 9 10 16 15 15 19 19 30 29 32 37 36 36 31 39 41 39 44 39 38 38 34 37 35 28 32 30 32 37 36 23 26 25 27 27
19 16 10 10 9 7 6 4 7 8 11 11 8 10 16 25 38 37 32 37 35 36 29 42 46 46 43 40 37 37 35 35 33 33 31 28 40 20 25 27 25 26 27

GFSSE_700_spd_078.txt.gz
Wind_Speed
13 12 10 8 7 6 7 7 6 11 17 19 19 19 19 19 19 17 15 13 13 11 13 15 16 14 13 13 14 15 13 11 9 11 10 11 12 12 12 12 12 12 11
10 10 6 4 6 7 8 9 8 12 16 20 20 23 24 19 21 20 20 16 14 13 13 14 16 14 13 14 14 14 12 11 12 13 13 13 11 12 12 12 12 12 12
6 7 9 13 14 12 11 12 12 14 17 20 22 22 22 22 24 22 21 19 15 15 14 15 14 13 14 16 15 16 11 9 13 14 15 12 13 12 14 13 12 11 10
14 15 17 20 20 18 15 15 15 16 18 17 20 22 21 23 24 20 21 21 17 16 16 15 14 14 15 16 16 15 12 11 14 18 15 13 12 14 13 12 11 9 8
10 12 14 16 15 15 17 18 17 18 19 19 22 26 25 22 21 22 22 22 18 17 17 16 15 15 16 16 16 14 12 12 15 15 14 13 11 11 11 9 8 8 8
12 14 16 15 14 14 15 17 18 20 22 23 25 30 21 24 23 24 21 21 20 18 17 17 16 17 17 15 14 13 14 14 13 13 13 12 11 10 10 11 11 9 8
13 17 14 13 12 14 13 16 19 21 24 26 28 26 25 29 29 24 23 21 21 20 20 18 18 18 17 15 13 13 13 12 13 12 13 11 11 12 11 11 10 9 8
14 12 14 14 13 14 13 14 16 21 24 27 31 32 31 33 33 26 25 22 23 22 22 21 19 17 17 16 15 15 14 13 13 13 13 12 13 11 11 10 10 9 8
12 13 19 17 15 15 15 15 17 20 26 31 33 36 35 33 32 27 25 26 24 24 23 21 19 18 18 17 16 15 14 13 12 12 11 12 11 11 11 10 9 8 8
11 16 18 19 20 17 17 19 19 20 25 34 35 37 43 37 29 38 33 27 27 22 21 20 20 20 18 18 18 16 16 14 13 11 12 11 12 11 9 8 7 7 8
14 17 17 20 23 21 21 22 24 25 27 29 32 34 33 37 25 38 38 32 33 25 25 24 23 21 20 21 18 18 15 14 12 12 12 14 12 10 8 8 8 8 8
14 17 19 21 24 22 23 23 25 28 28 29 30 33 35 34 27 20 27 29 29 27 26 24 23 22 23 21 20 18 15 14 10 13 14 14 12 10 10 9 8 8 8
16 17 21 23 25 24 24 22 24 27 29 29 28 29 28 27 19 20 22 38 31 29 28 28 25 24 21 19 16 15 14 11 14 14 15 15 13 12 11 9 9 9 10
17 16 21 23 24 24 23 19 17 22 26 26 27 26 23 22 22 23 22 36 33 31 30 27 26 24 23 21 20 18 15 16 16 17 17 17 15 14 11 10 10 10 10
17 19 21 22 23 22 20 16 12 14 21 23 24 24 23 22 23 25 23 24 35 33 30 27 25 25 24 24 21 20 19 16 17 17 18 17 15 12 11 10 9 9 11
16 18 17 20 22 21 19 15 9 9 14 19 22 21 22 23 23 30 24 35 41 34 31 28 25 25 23 23 21 19 19 18 18 18 17 16 14 13 12 11 11 11 12
14 14 16 20 21 20 19 15 10 10 13 17 17 19 21 24 27 27 31 28 42 36 33 31 28 25 26 24 20 21 18 19 19 18 17 17 15 14 13 13 13 13 14
17 16 16 19 20 19 20 16 13 14 16 19 21 21 24 30 32 34 37 27 42 38 35 32 29 29 27 24 23 25 22 21 21 17 18 19 18 16 15 14 15 16 15
21 20 17 20 19 19 19 17 14 15 17 20 22 22 22 27 38 40 38 30 41 39 36 33 29 29 28 28 25 23 21 19 19 19 20 20 19 17 17 14 14 14 15
24 20 18 19 18 19 18 18 16 15 17 19 20 23 23 22 29 40 38 36 40 40 37 35 31 31 28 28 26 24 23 22 21 21 22 21 20 19 18 17 16 16 14
25 21 17 18 17 19 17 18 17 18 17 19 16 14 17 24 31 43 35 43 39 38 36 35 34 34 33 32 28 29 28 25 24 23 24 23 22 21 20 19 18 19 18
25 20 16 16 16 17 16 16 18 19 19 18 11 11 6 22 23 34 36 42 38 37 37 38 36 36 34 32 31 28 27 27 25 24 23 25 25 23 20 20 21 20 19
21 17 14 14 15 15 16 15 16 17 18 16 12 6 4 18 18 26 44 38 36 35 38 38 36 36 35 33 32 29 30 29 24 25 24 24 26 26 25 25 24 23 21
18 17 15 13 13 13 14 15 15 13 12 13 11 5 6 9 25 18 37 36 38 38 38 36 36 35 33 32 32 31 30 28 26 28 26 26 25 25 28 28 30 27 25
15 17 15 12 10 10 12 14 11 7 9 14 13 13 13 15 17 23 21 38 38 37 35 35 35 34 32 33 32 30 30 32 33 30 25 25 28 26 27 35 34 31 25
18 18 17 13 10 8 9 11 9 5 7 12 12 12 15 19 22 22 27 26 28 37 41 37 36 35 35 39 35 34 31 31 31 29 29 34 31 33 30 28 34 33 30

GFSSE_700_spd_084.txt.gz
Wind_Speed
9 10 9 14 14 13 13 12 9 5 5 7 10 11 11 10 9 8 10 10 7 4 8 10 10 11 11 11 10 11 11 9 9 9 9 10 12 12 12 11 10 12 12
11 9 9 12 13 13 13 12 10 8 7 7 12 12 11 9 9 9 12 12 10 6 7 11 12 12 12 11 12 13 12 10 8 10 12 12 12 12 12 11 11 11 13
12 8 8 10 13 15 16 16 14 11 10 10 12 12 12 13 11 12 15 14 11 9 8 10 13 14 14 13 14 13 13 11 12 13 14 14 12 12 12 12 11 13 12
11 6 9 11 14 15 17 22 20 16 13 13 13 13 13 15 16 14 15 13 14 12 10 11 11 13 15 14 13 11 11 11 11 12 15 13 12 12 12 13 13 13 10
9 8 8 11 14 13 10 11 13 16 17 16 17 17 16 16 18 18 19 18 17 15 11 10 11 12 13 13 12 12 12 9 13 15 14 13 12 13 14 14 13 12 10
10 9 11 13 10 8 8 8 9 13 16 17 17 18 17 17 20 20 18 20 17 15 12 12 13 13 14 13 14 15 13 12 17 17 15 13 14 15 13 12 11 11 12
13 12 11 11 8 8 7 7 8 10 15 18 19 20 20 21 21 20 21 19 19 18 16 17 16 14 14 14 16 15 15 14 17 19 17 15 14 12 13 14 14 13 12
14 14 13 11 11 8 8 8 9 9 13 17 20 22 23 21 23 24 24 23 24 21 19 18 17 15 14 16 16 15 15 16 17 19 19 17 16 14 13 14 12 12 11
14 15 12 12 13 9 9 9 9 11 14 18 21 23 25 27 27 27 28 27 29 31 22 21 18 14 15 17 17 16 16 17 18 19 17 17 16 15 14 12 12 11 11
13 13 9 13 14 11 10 11 11 12 16 20 21 24 28 29 30 30 34 24 31 29 24 22 17 17 17 18 17 17 17 18 18 18 18 17 16 15 14 12 12 11 11
14 10 9 10 13 14 12 14 14 14 17 20 24 26 29 30 30 32 29 23 25 27 29 27 18 20 20 19 19 18 20 20 19 18 20 15 15 14 12 12 13 12 11
19 13 9 10 12 14 14 15 17 16 18 19 23 26 30 32 31 29 21 24 25 28 32 35 20 23 22 24 23 21 21 20 20 19 19 17 15 13 13 13 13 11 12
22 15 12 11 11 14 16 16 19 18 19 20 23 26 28 29 29 26 28 26 25 33 27 43 28 27 25 25 23 24 23 22 23 21 17 17 16 14 13 12 12 12 12
25 21 18 14 14 16 16 16 18 18 18 20 22 26 28 28 27 26 25 23 20 17 33 40 32 26 26 25 24 25 24 23 20 19 17 18 16 14 12 12 12 12 12
26 25 21 15 14 15 14 16 17 18 17 18 20 24 25 28 27 24 23 26 20 17 30 36 33 29 27 26 26 24 23 20 19 18 19 18 15 13 13 12 13 13 13
30 27 22 17 14 14 14 15 17 18 16 16 17 22 23 27 26 24 24 25 24 15 25 39 33 29 28 28 26 24 22 22 19 20 20 18 15 15 15 14 14 14 15
31 28 22 18 16 15 14 14 17 18 15 14 14 18 22 25 25 24 23 24 25 15 29 36 35 30 30 27 27 24 23 20 19 22 19 16 15 17 15 16 16 16 16
29 25 24 20 20 17 14 13 16 18 14 13 13 17 20 23 25 25 25 26 26 21 26 31 31 31 30 29 29 27 24 21 21 20 19 17 17 17 17 18 17 17 18
28 27 27 22 22 20 15 13 16 18 13 13 14 17 20 23 24 25 26 28 28 31 28 20 35 32 33 31 30 28 26 24 24 21 20 17 18 19 19 20 19 19 20
30 28 28 26 24 23 15 14 17 18 14 14 14 17 21 23 25 27 28 31 29 35 31 29 40 31 33 33 31 29 27 26 23 20 21 19 21 20 20 21 20 21 21
34 32 31 27 25 23 17 15 17 16 16 16 16 18 22 26 28 29 31 34 35 39 33 29 37 36 35 34 32 33 29 27 24 22 23 19 20 21 21 20 21 22 22
35 33 31 28 25 22 20 17 18 17 17 17 18 20 23 25 29 32 36 40 37 44 34 34 39 34 36 35 34 31 30 29 27 22 22 18 23 24 24 20 20 20 21
35 34 31 29 24 21 20 19 19 19 17 16 18 20 21 24 26 30 30 37 33 44 40 34 39 38 38 37 36 34 34 31 26 24 22 24 24 24 25 25 23 23 24
37 35 32 29 25 21 19 19 21 18 15 16 14 15 15 17 22 27 35 30 41 43 39 38 41 40 39 39 38 35 31 25 27 25 23 23 22 20 22 25 28 30 28
41 36 31 29 26 21 21 19 19 15 15 13 12 15 13 10 6 16 20 30 35 35 43 37 43 43 37 33 33 34 29 31 27 22 24 26 24 20 18 20 24 28 29
44 41 34 30 26 22 20 18 16 12 13 10 11 14 15 12 5 4 10 21 29 27 37 38 45 39 35 39 33 32 31 30 28 28 25 26 24 22 20 22 24 25 28

GFSSE_700_spd_090.txt.gz
Wind_Speed
10 10 9 10 11 8 7 12 13 12 13 10 10 9 8 9 8 8 8 5 2 0 2 6 8 9 9 10 7 6 7 7 7 7 7 7 8 9 10 8 7 9 10
12 14 11 11 11 9 6 9 10 13 14 11 11 9 10 10 9 10 8 7 3 3 3 6 8 9 10 9 9 7 7 7 6 7 8 8 10 10 8 7 8 10 10
14 15 14 13 12 11 8 9 10 11 15 13 13 13 12 12 11 11 9 7 5 5 4 4 7 8 9 10 8 7 7 7 8 8 10 10 11 10 8 9 9 9 10
16 16 15 12 12 12 11 12 13 15 15 15 14 14 14 13 12 13 11 11 7 8 5 5 7 9 11 10 9 8 9 10 9 9 10 11 11 10 10 8 8 9 9
16 15 14 8 10 11 11 10 9 10 16 20 18 17 13 15 16 14 15 13 10 9 7 8 9 11 12 12 10 10 10 10 11 11 11 12 11 10 10 10 10 10 8
15 11 9 5 9 10 8 7 6 7 10 15 18 17 16 17 17 16 16 14 15 13 10 9 11 11 8 8 10 11 10 11 11 13 11 12 11 11 9 10 10 8 7
13 8 7 5 9 9 6 6 7 7 9 12 16 18 19 19 19 19 17 16 17 16 14 13 12 11 9 7 10 10 13 11 11 12 13 11 11 11 11 11 10 8 7
14 10 8 6 6 7 6 5 7 8 9 11 15 19 19 20 21 20 19 20 21 20 21 18 15 12 11 9 12 13 15 12 13 13 13 12 11 12 12 12 11 9 6
19 13 9 7 6 7 8 7 6 8 10 12 14 17 20 21 22 22 22 24 23 21 23 22 16 13 12 11 13 15 15 13 16 15 14 14 13 14 12 12 11 10 8
21 17 13 10 7 7 8 8 8 8 9 13 15 15 19 22 23 23 24 24 23 23 23 16 19 19 16 13 15 17 15 14 15 18 19 16 15 15 15 15 12 12 10
27 22 18 15 12 10 11 10 10 10 9 11 14 15 19 22 23 24 24 24 25 26 27 25 25 27 18 19 18 18 15 17 20 18 19 19 19 18 19 16 14 13 11
30 29 23 20 16 12 13 11 11 11 11 12 14 15 19 21 23 24 24 26 28 28 30 20 20 27 26 23 22 20 20 20 22 20 22 22 20 19 18 16 16 14 11
35 34 30 24 21 16 15 13 13 13 13 14 14 14 18 20 23 27 27 27 29 29 34 22 24 26 33 27 25 23 24 23 20 23 25 24 20 20 19 17 17 15 13
29 34 32 29 25 21 18 16 15 15 15 15 15 15 17 20 22 25 27 29 27 28 29 19 20 30 21 34 27 26 26 25 24 27 25 19 22 20 19 18 17 15 13
28 32 34 34 27 24 21 17 17 15 17 17 17 16 17 20 21 25 25 30 31 28 27 23 20 24 28 35 30 28 24 25 24 21 24 22 22 21 19 19 17 15 12
27 31 36 35 29 28 25 19 17 16 16 18 18 18 17 19 20 25 26 26 28 25 24 20 19 20 25 38 31 30 26 23 26 27 22 22 22 20 19 18 16 16 15
30 28 40 36 32 31 27 23 20 18 18 19 19 19 18 18 20 22 25 26 26 22 22 26 22 22 25 41 32 28 31 31 30 31 18 19 20 20 19 18 17 17 15
28 30 38 37 35 32 29 28 24 22 20 20 19 19 19 17 19 19 26 25 23 23 22 27 25 24 25 32 31 31 30 34 34 32 21 19 20 19 19 19 18 18 15
33 33 38 38 35 34 33 31 29 25 22 22 19 19 18 17 17 20 23 23 23 24 24 21 26 17 30 35 31 30 32 34 29 29 26 21 20 20 20 19 18 18 15
35 34 39 38 39 38 36 35 34 26 23 23 21 19 18 16 18 21 22 23 26 26 27 24 25 18 29 33 30 33 34 32 27 28 27 21 21 20 19 18 19 17 15
30 32 44 44 40 36 34 38 33 27 24 22 21 21 19 18 19 23 25 26 28 28 27 25 22 26 34 36 36 31 32 33 30 28 27 22 21 20 20 21 21 18 14
33 35 45 43 39 35 35 36 29 28 26 24 22 23 21 20 22 25 28 28 28 29 30 30 28 29 30 31 36 31 34 31 31 28 25 22 22 21 22 22 21 17 15
34 38 41 43 37 35 37 32 31 29 29 24 23 24 22 24 26 27 28 29 30 30 30 31 31 34 27 33 35 36 37 37 31 28 25 22 22 19 19 18 18 17 16
33 41 41 44 38 37 35 30 31 29 26 24 25 24 24 26 28 28 27 29 31 32 32 30 30 34 33 26 39 39 35 28 26 27 26 25 23 19 18 19 17 17 18
31 34 34 41 38 38 36 31 30 29 26 25 25 24 25 25 24 23 19 19 25 30 33 32 33 33 46 35 40 34 38 30 26 23 24 24 23 21 23 22 20 20 20
26 35 34 35 37 38 34 30 27 28 26 25 24 23 25 23 20 18 18 19 17 25 34 35 36 38 41 39 35 35 34 32 28 23 23 20 18 20 23 22 21 19 19

GFSSE_700_spd_093.txt.gz
Wind_Speed
15 13 10 11 10 10 9 7 10 11 13 12 10 9 9 9 11 11 10 9 7 5 5 6 8 9 9 9 12 9 9 9 8 8 7 6 4 7 8 10 8 10 10
10 10 10 13 13 11 9 7 7 11 13 14 12 9 8 9 11 12 11 11 8 6 5 6 8 9 10 11 8 8 9 10 9 9 8 5 7 9 10 9 10 10 10
10 11 11 13 13 11 11 10 9 9 11 15 13 10 11 10 12 13 13 11 9 6 5 6 9 10 11 10 9 8 9 10 10 9 7 8 10 11 10 10 10 10 10
10 9 11 15 14 13 14 14 10 10 12 15 14 12 11 12 13 15 15 12 10 9 9 6 8 10 11 10 9 10 11 11 9 7 8 11 13 13 10 10 10 11 10
11 11 12 15 14 13 14 14 9 9 12 17 16 15 14 14 14 16 15 13 12 10 11 10 8 9 9 10 10 11 12 12 11 10 12 12 12 11 11 10 10 10 10
17 17 14 13 11 13 15 10 7 7 9 12 16 17 16 17 16 16 16 14 14 15 14 12 12 10 11 12 12 13 14 12 12 13 13 15 14 13 12 10 11 11 10
21 20 16 14 11 13 13 9 6 7 8 10 13 16 18 19 17 17 17 17 17 19 16 10 10 13 13 10 11 13 12 12 12 12 13 15 14 12 12 13 13 11 10
23 19 16 14 9 11 9 9 5 6 8 10 11 15 18 19 18 18 18 19 22 19 16 14 12 18 18 13 11 12 13 13 12 14 15 13 13 14 14 14 13 11 9
21 20 16 13 11 10 9 10 6 7 8 10 12 13 15 18 19 20 20 22 21 19 19 16 18 21 17 14 14 14 15 15 14 15 16 14 14 16 15 14 12 10 9
23 23 20 16 13 11 10 9 7 9 9 11 13 14 14 17 19 21 22 21 20 20 19 18 24 11 24 15 17 17 16 14 15 19 16 16 16 17 14 13 12 12 10
26 22 23 20 17 14 11 10 7 9 11 11 12 14 15 16 19 20 21 22 22 23 23 23 23 21 16 21 20 20 20 18 18 19 19 18 17 18 17 16 15 12 11
30 28 26 25 22 18 15 12 9 9 11 13 13 14 16 17 19 21 21 23 24 25 25 26 26 24 14 22 24 22 22 20 18 17 20 21 21 19 18 17 15 14 13
29 32 27 29 27 21 19 14 13 11 12 14 14 14 16 17 19 22 24 24 25 26 27 28 24 21 22 25 24 24 24 21 21 22 21 23 23 21 19 18 16 15 14
35 39 37 29 32 26 23 19 17 12 13 15 15 15 17 18 19 21 23 24 26 26 26 26 30 27 25 27 27 26 27 25 25 25 25 23 24 21 19 18 17 16 15
31 39 35 29 29 30 27 23 20 14 15 15 16 15 17 19 19 20 22 22 23 27 28 26 21 18 15 25 29 32 30 27 24 25 24 24 22 23 20 18 17 16 16
29 34 31 31 30 30 30 26 22 17 17 16 16 17 19 19 20 21 20 21 22 25 29 26 22 19 21 17 23 35 30 29 28 26 27 26 23 22 20 19 18 17 15
33 36 36 29 29 30 30 30 24 21 19 17 17 18 19 20 20 21 20 22 21 24 21 21 23 21 22 24 23 34 31 31 30 31 29 23 22 21 20 19 18 18 16
36 35 39 33 31 31 34 32 28 24 22 19 19 20 20 21 20 22 21 22 22 22 22 22 23 25 18 25 27 35 35 34 33 32 30 17 18 20 21 20 20 19 18
42 41 39 38 34 33 31 32 30 28 26 21 22 21 21 21 21 21 20 21 22 22 24 23 24 26 21 26 27 35 37 36 37 36 27 20 19 21 22 20 20 19 17
27 42 44 40 37 34 32 32 31 29 29 25 24 22 21 21 21 20 19 21 19 21 23 24 24 22 29 28 27 36 38 35 39 32 25 21 21 22 22 21 20 18 16
24 26 49 40 38 36 37 32 33 32 31 26 25 24 23 22 21 19 20 22 21 23 25 25 24 26 24 18 23 37 39 34 37 32 25 23 23 24 23 22 20 19 18
28 25 44 42 34 35 37 37 31 31 28 28 27 26 24 23 21 20 22 22 24 26 28 28 28 28 24 18 31 34 37 38 35 34 28 27 25 25 25 23 22 20 19
26 29 40 40 37 38 40 38 35 30 28 31 27 25 25 25 23 22 24 23 24 28 31 30 28 29 28 22 38 46 42 42 41 36 30 27 23 24 23 22 21 19 20
27 36 39 38 41 39 40 40 35 31 29 27 25 25 27 26 24 24 23 22 24 27 31 30 29 30 30 27 27 38 41 34 34 29 30 28 24 23 23 20 20 20 21
28 36 37 37 35 39 43 39 35 32 29 29 29 28 26 24 23 24 23 22 21 23 26 30 30 31 32 30 28 34 39 33 28 21 20 24 24 23 21 20 21 20 22
28 33 35 34 37 36 36 43 39 32 28 28 29 26 24 23 23 23 20 19 20 19 19 25 30 32 33 33 32 32 39 38 36 27 22 22 20 21 20 20 20 18 20

GFSSE_700_spd_099.txt.gz
Wind_Speed
14 14 12 9 6 2 3 7 11 11 13 16 14 14 14 15 15 13 12 12 12 11 9 9 9 8 9 10 11 11 13 11 9 6 10 5 5 6 7 8 6 6 8
12 13 14 11 8 3 1 6 13 13 13 14 14 15 16 16 13 12 12 12 12 11 11 12 11 11 11 11 12 16 14 11 9 8 6 4 4 7 8 7 6 7 8
17 15 12 12 10 5 1 4 13 15 14 13 14 15 17 16 13 12 12 12 11 11 12 13 12 13 12 13 15 13 11 11 10 10 9 6 6 8 8 6 7 8 9
14 13 13 13 11 7 3 4 11 13 15 13 15 15 16 16 14 12 13 14 14 13 14 13 13 13 13 14 15 14 11 11 12 11 9 8 9 9 9 8 9 10 11
9 13 15 15 13 9 8 9 11 12 13 13 13 15 17 16 15 15 14 15 16 16 15 14 13 12 14 15 15 13 13 13 12 10 9 9 10 10 9 9 11 11 12
16 15 15 13 11 11 15 14 11 11 11 13 13 15 18 18 17 17 16 16 17 16 16 14 13 13 14 14 15 14 14 14 13 13 12 11 12 10 10 12 13 13 12
16 16 15 14 17 19 18 14 10 9 10 11 13 15 17 19 20 18 17 17 18 17 17 15 13 14 14 11 12 15 17 17 15 14 13 14 14 14 15 14 14 13 12
15 16 16 17 18 16 16 12 11 9 10 8 11 14 15 17 19 19 18 17 18 18 18 16 15 17 15 11 11 15 17 18 17 15 15 15 17 15 16 15 15 15 14
15 16 17 17 17 16 16 14 13 11 10 8 10 13 14 14 16 18 19 18 18 18 18 17 17 18 17 16 14 15 13 15 16 17 16 19 19 18 17 16 16 15 13
21 20 22 23 22 20 19 16 15 12 11 9 9 12 13 14 15 16 18 18 17 18 19 19 19 19 21 17 17 18 18 19 18 18 18 20 20 18 17 17 16 16 13
23 25 24 23 21 19 21 20 17 15 13 10 9 11 13 13 14 16 16 17 17 20 20 21 20 22 21 21 21 14 14 12 18 19 20 20 18 18 19 19 17 16 13
23 23 22 22 21 20 22 22 20 18 15 13 10 11 12 13 14 15 17 18 19 20 21 22 23 25 24 23 20 18 17 19 19 23 21 20 19 19 20 20 18 15 13
22 24 23 23 24 23 25 25 23 21 17 15 12 11 11 13 12 14 17 19 20 21 24 24 25 27 26 25 22 21 19 21 22 25 25 22 20 21 23 21 18 16 15
25 23 23 23 24 25 25 28 27 25 21 18 14 12 11 11 11 12 15 18 21 22 24 24 25 24 26 24 27 23 24 20 26 29 26 23 22 23 26 22 19 18 16
31 25 25 27 26 29 31 30 32 29 26 22 17 13 11 10 10 12 14 17 21 22 24 24 27 26 25 26 28 24 21 32 32 33 26 23 25 25 25 22 21 20 18
32 31 29 29 27 28 29 29 28 32 30 26 21 16 13 12 10 10 13 17 19 21 24 24 26 25 26 29 30 25 27 27 31 27 26 26 26 28 27 26 23 20 18
38 33 33 30 31 30 29 29 30 28 34 30 25 20 17 14 12 11 13 18 18 20 22 24 25 24 29 32 34 20 24 21 29 26 26 26 28 26 26 24 24 22 19
48 47 41 35 35 33 30 30 28 26 31 33 29 24 21 17 15 14 14 17 18 19 21 23 26 26 25 31 27 25 24 20 15 27 31 29 30 27 24 26 25 23 21
45 52 52 49 44 38 35 37 32 32 28 32 34 28 25 22 18 16 15 16 19 19 19 21 25 26 26 25 27 25 28 21 21 23 33 31 30 28 25 26 26 23 21
33 40 42 49 49 44 40 38 37 34 31 28 33 32 30 27 22 19 17 16 19 18 17 19 22 23 27 25 28 29 34 24 25 25 35 34 32 32 24 23 24 24 23
35 36 39 43 39 39 44 46 42 42 33 31 34 34 34 32 28 23 19 17 18 17 16 18 21 23 26 28 26 26 30 23 31 28 37 35 33 31 30 24 22 24 23
41 36 36 40 41 42 38 39 45 40 38 33 33 34 31 31 31 26 22 20 19 18 18 20 21 24 26 28 30 29 31 27 22 30 39 39 34 33 28 25 23 25 23
47 44 41 37 39 44 41 38 41 45 43 37 34 32 28 30 31 28 25 22 20 19 18 20 24 26 27 27 31 28 30 29 21 27 37 42 37 37 29 26 26 25 25
40 50 49 46 39 35 41 43 41 45 44 41 34 24 22 26 31 29 27 23 22 22 21 21 25 28 28 30 30 31 30 28 30 25 37 39 40 40 30 27 27 26 26
31 42 45 50 49 44 39 33 38 40 41 37 34 28 26 27 29 31 27 23 24 23 22 23 25 27 29 30 31 33 32 27 29 27 39 48 45 40 29 27 27 27 27
29 30 38 41 42 45 43 35 36 37 43 36 34 32 25 28 31 31 27 24 25 26 21 24 25 25 28 30 32 33 33 33 31 35 37 45 38 36 29 26 28 27 27

GFSSE_700_spd_105.txt.gz
Wind_Speed
17 13 14 12 9 4 2 3 4 6 8 10 12 11 9 8 9 9 10 8 8 9 9 9 9 8 5 6 8 8 8 8 8 7 6 5 3 2 6 7 8 8 9
13 10 15 13 10 6 4 2 3 4 5 6 9 11 10 10 10 9 10 7 9 10 10 10 9 9 6 7 8 9 9 10 10 8 7 6 4 2 6 9 7 9 10
14 13 15 14 11 8 5 3 1 1 1 3 5 8 9 10 11 11 11 7 8 9 11 10 9 9 9 9 9 9 9 10 10 7 7 4 3 6 7 6 8 10 10
10 13 17 15 13 9 6 3 0 1 2 1 2 5 8 10 11 11 10 7 6 9 10 9 10 9 10 10 9 8 10 11 9 9 9 6 3 7 10 7 9 11 11
6 12 17 15 13 11 6 2 4 3 4 3 3 5 7 9 10 12 9 7 6 7 8 9 10 9 9 9 7 9 9 8 9 10 9 8 7 9 10 10 13 12 11
7 9 14 14 13 9 5 5 9 11 9 5 5 6 7 9 10 11 10 8 8 7 8 8 10 8 7 8 8 8 9 9 10 10 10 10 9 11 13 12 13 12 12
10 11 15 16 14 9 9 11 10 10 9 9 7 7 8 9 10 11 11 10 9 10 8 9 10 8 7 8 7 7 7 7 9 10 11 11 11 12 13 13 14 13 13
14 14 15 17 14 11 9 9 10 9 11 12 9 8 8 9 10 11 12 11 10 11 11 11 11 10 8 8 8 7 7 10 9 11 13 13 14 14 15 15 15 14 14
17 18 19 19 15 12 9 8 8 10 11 13 12 9 8 10 10 11 11 11 12 12 12 12 12 12 10 11 12 10 12 11 15 11 14 15 15 16 16 17 15 15 14
21 22 22 20 17 14 10 9 8 10 12 14 14 13 10 11 11 10 10 10 12 13 14 14 13 14 13 13 16 12 13 13 17 15 18 16 16 18 19 18 17 16 15
26 27 26 22 18 16 13 12 10 10 14 15 14 15 12 12 11 10 9 10 12 14 14 15 15 16 16 16 19 16 14 13 15 17 19 17 18 21 22 20 19 18 17
29 27 25 23 22 17 17 16 15 13 15 15 16 15 15 14 12 10 10 10 12 14 16 16 17 17 19 19 19 19 15 17 18 14 11 15 19 22 24 22 22 21 20
30 26 27 25 24 20 22 22 19 17 17 19 18 17 17 16 14 11 10 11 11 13 16 17 18 19 18 20 17 18 16 19 20 20 22 22 18 21 26 27 26 24 21
29 26 28 30 27 23 27 26 22 23 20 20 20 20 19 17 15 13 11 11 12 12 15 18 19 19 20 20 19 20 21 22 25 22 26 20 23 21 27 27 33 28 21
33 30 30 32 30 25 27 27 26 25 24 24 23 23 22 20 17 16 13 11 11 12 15 18 19 20 21 21 21 22 26 23 26 28 28 29 26 21 25 26 26 24 23
32 38 35 36 37 41 31 30 30 27 25 26 25 26 26 25 19 18 16 13 10 12 14 17 19 21 23 23 23 24 25 26 28 29 34 32 30 23 25 27 24 21 21
34 34 36 38 36 39 36 37 33 29 27 28 27 26 30 27 24 20 19 16 12 12 14 17 18 21 24 25 25 25 24 25 29 26 23 32 30 30 27 35 29 25 23
39 39 37 36 39 37 40 41 40 36 34 32 28 27 30 32 29 25 21 20 16 15 15 16 17 20 22 25 26 25 21 18 27 33 30 31 31 35 32 28 35 31 24
39 40 41 39 40 43 44 42 44 44 40 37 32 28 28 35 35 30 26 22 20 18 16 16 17 18 22 24 24 25 26 22 20 27 33 28 22 33 29 37 24 28 26
36 38 39 36 38 39 43 49 50 46 45 41 37 33 31 33 39 35 31 27 24 21 18 17 17 17 19 21 23 26 31 28 22 24 27 21 19 26 30 21 26 23 26
34 37 41 41 40 37 39 38 44 52 52 48 45 38 34 32 37 38 35 32 27 25 20 20 19 18 19 20 22 25 29 29 27 24 17 21 14 9 30 30 28 31 28
35 35 38 45 43 42 40 39 37 39 48 53 49 45 39 35 35 39 39 37 32 28 25 23 21 19 20 20 22 24 28 28 32 26 21 24 21 19 19 34 34 33 29
33 34 34 37 45 44 42 40 41 37 42 49 51 47 42 36 34 38 41 41 37 32 29 26 24 22 22 20 22 25 29 33 24 23 21 19 24 24 24 30 40 32 32
23 28 29 30 37 45 43 43 44 41 40 40 49 43 38 41 38 40 40 41 39 36 33 29 26 25 24 23 23 26 29 29 27 23 24 25 22 23 26 30 38 37 35
29 27 29 28 34 38 43 38 43 43 37 35 39 40 41 44 41 39 39 39 40 37 33 32 29 28 27 26 25 26 27 29 28 29 25 25 25 25 23 27 38 40 37
39 35 32 31 28 32 45 46 39 43 39 34 39 39 38 31 43 42 37 39 40 35 34 34 31 29 29 29 27 25 26 27 28 28 25 26 24 26 23 23 37 41 37

GFSSE_700_spd_111.txt.gz
Wind_Speed
11 7 12 11 13 9 4 3 5 5 7 6 5 4 4 2 1 4 7 9 3 1 2 2 2 3 4 3 4 6 7 8 8 8 6 4 2 2 3 3 4 4 7
10 9 14 13 13 10 6 3 3 3 4 4 4 3 3 2 1 4 6 8 3 0 2 3 3 4 4 5 5 5 7 8 8 7 6 3 6 8 6 4 2 4 5
10 14 16 16 14 12 8 6 5 2 1 1 1 2 2 2 3 2 4 7 3 0 2 3 3 4 5 7 7 7 7 8 7 8 6 6 5 7 3 10 9 6 7
12 15 16 17 15 13 10 7 4 0 1 2 2 1 1 3 4 2 3 4 3 1 2 3 4 5 6 7 8 8 7 7 6 7 7 7 8 7 4 9 9 9 11
13 15 16 18 17 14 11 8 4 2 5 4 4 3 3 3 4 4 3 3 2 1 3 4 5 5 6 7 7 7 6 7 8 9 10 5 12 7 8 11 10 12 12
14 15 17 19 19 16 12 10 5 5 5 6 6 5 5 5 5 5 5 2 2 2 4 6 6 6 7 7 6 7 8 8 8 8 9 9 10 7 11 13 12 13 13
17 17 18 21 22 19 15 11 7 6 6 8 8 7 6 6 6 6 6 5 5 4 5 6 7 8 8 9 8 8 9 9 9 7 11 11 9 9 11 13 14 14 14
19 16 17 22 24 21 18 14 10 10 9 9 9 8 8 7 7 8 8 8 8 8 7 8 9 9 9 10 11 10 11 10 9 14 5 16 8 10 11 14 15 15 16
24 22 19 20 25 24 21 17 14 13 11 11 11 10 10 9 10 10 10 10 10 10 11 11 11 11 11 12 13 13 13 12 11 14 14 13 12 12 14 17 18 18 18
27 26 23 22 25 27 24 20 18 15 13 13 13 12 12 12 12 11 12 12 11 12 12 12 13 14 13 14 16 16 16 15 13 12 13 16 12 14 16 19 19 20 22
30 29 29 28 27 29 27 23 20 18 15 15 14 14 13 13 13 12 13 13 14 13 14 15 15 15 16 16 17 18 19 19 16 17 18 25 19 16 17 20 22 22 23
34 35 33 30 30 31 31 25 22 19 18 15 15 15 15 15 14 15 14 14 15 15 16 16 16 16 17 18 18 19 21 21 21 20 22 22 16 18 19 22 24 24 25
17 38 37 34 32 32 33 29 26 22 23 20 17 17 16 17 17 16 17 15 17 16 16 16 16 16 17 18 18 19 21 22 25 20 26 22 21 19 16 21 24 26 26
15 23 38 39 35 34 36 35 28 26 26 25 20 19 19 19 18 19 18 17 18 18 17 17 16 16 18 19 20 21 21 24 24 27 25 24 22 19 20 22 31 31 32
26 24 27 39 39 38 38 39 36 29 29 29 25 24 22 21 20 20 18 19 20 18 18 18 17 16 18 20 22 22 22 25 28 27 26 27 21 24 22 29 27 37 29
16 24 31 37 38 39 40 41 38 36 32 32 30 28 27 23 22 22 21 20 21 21 20 19 18 17 16 19 22 23 24 27 28 28 29 27 27 24 25 27 28 35 29
32 32 35 33 39 39 41 42 41 39 37 33 33 32 31 29 28 26 26 24 23 23 21 21 19 19 18 19 21 22 23 28 29 29 31 27 25 27 29 33 28 26 39
34 38 38 36 34 37 40 39 39 41 41 37 35 35 35 34 32 32 30 30 26 25 26 23 21 20 18 18 20 22 25 28 29 29 31 28 29 24 31 33 31 30 21
30 37 40 41 39 39 40 43 38 39 42 42 42 39 40 38 36 35 35 31 32 28 28 26 25 23 20 20 19 21 24 26 27 28 30 29 29 25 30 29 33 32 30
29 29 34 40 45 45 43 41 46 47 46 44 48 46 44 43 42 40 41 35 34 34 32 30 28 26 24 22 20 21 22 25 25 27 28 30 32 32 30 27 21 23 23
27 28 30 33 36 40 45 46 46 49 50 52 50 52 50 53 49 46 45 40 38 35 37 35 32 30 28 26 24 22 22 23 26 26 27 29 31 29 31 19 18 19 21
29 29 30 32 35 37 40 43 48 51 54 55 57 54 54 55 55 51 49 46 42 39 39 41 38 34 31 29 27 25 24 22 24 27 27 27 28 29 29 17 13 11 22
25 26 28 30 32 35 38 42 45 49 50 53 56 58 60 60 56 55 54 50 49 45 42 42 42 38 34 32 30 29 28 24 22 24 28 27 26 27 24 21 17 11 11
28 29 28 30 30 32 35 39 45 48 53 54 50 54 55 57 60 61 57 55 54 50 46 43 43 42 39 35 34 32 30 27 25 27 25 25 22 23 23 23 24 18 15
29 30 32 33 35 35 37 40 43 47 51 54 59 55 57 55 53 52 60 64 56 53 50 46 41 45 43 39 37 34 33 31 29 27 27 28 25 23 22 23 22 21 21
28 31 34 37 40 43 45 44 48 49 50 54 56 59 50 59 55 51 51 57 57 57 54 49 43 45 47 44 40 37 36 35 30 29 29 27 26 24 25 26 26 27 25

GFSSE_700_spd_114.txt.gz
Wind_Speed
11 9 15 14 14 9 3 3 3 4 6 6 5 4 5 6 4 4 5 5 5 5 6 5 4 3 3 2 3 3 5 5 6 6 4 4 1 3 5 7 6 3 3
10 10 16 15 14 12 7 4 5 4 4 3 2 3 4 5 3 3 4 4 4 5 6 6 5 4 3 3 3 3 5 6 6 7 6 3 4 7 9 1 6 4 4
13 14 18 18 14 14 10 7 6 5 3 2 2 2 3 3 3 2 3 4 3 4 6 7 6 5 4 5 5 5 6 6 7 8 7 5 6 4 8 9 8 6 5
16 16 18 18 16 15 12 10 7 4 2 2 3 2 3 4 4 3 1 2 3 3 5 6 5 6 6 5 6 7 7 5 6 7 8 8 6 5 6 9 9 9 7
17 18 18 19 18 17 15 12 10 6 3 3 5 3 2 3 4 4 2 1 1 2 4 5 6 6 6 6 7 7 6 6 8 11 9 9 9 6 5 7 7 8 6
15 18 19 21 21 20 18 14 12 6 5 6 6 5 4 3 4 4 4 2 2 1 3 5 6 6 7 7 8 7 6 7 6 8 10 7 8 4 7 9 9 7 7
19 18 19 22 23 22 19 17 15 8 6 7 7 8 6 5 5 6 6 5 4 3 4 6 6 7 9 9 9 8 8 9 9 14 16 16 4 5 8 10 12 10 10
22 21 20 23 24 24 23 20 17 11 9 9 10 9 9 8 6 6 7 7 7 7 7 7 8 9 10 10 10 10 9 11 13 13 17 10 4 7 9 10 12 12 11
22 24 24 24 25 27 25 22 19 14 13 12 11 11 11 11 9 8 8 9 9 9 10 10 10 11 12 13 13 12 11 13 14 12 19 4 5 12 11 11 13 14 14
25 25 25 22 24 27 27 25 23 18 17 15 14 13 13 13 12 10 10 10 10 10 11 12 12 14 14 15 15 14 14 14 14 17 18 17 13 11 11 13 15 16 16
27 29 29 29 28 27 29 28 27 22 19 17 16 15 15 14 13 13 11 10 11 12 13 13 14 15 16 16 16 16 15 15 17 18 22 16 13 10 19 13 15 17 19
22 31 34 33 31 29 30 30 29 25 21 20 18 17 16 15 15 14 14 12 13 13 13 14 15 16 17 17 17 17 16 16 18 19 20 22 18 12 14 18 17 20 22
12 24 35 36 34 33 32 32 33 29 24 23 21 18 17 18 17 18 16 15 14 14 14 15 15 16 17 17 17 17 18 18 19 24 26 26 13 16 20 17 15 20 26
19 24 22 34 36 39 37 35 35 34 28 24 24 22 20 20 20 20 17 15 16 16 16 16 16 16 17 18 19 18 17 18 21 25 23 21 20 19 19 18 16 20 19
21 22 28 25 38 36 39 37 36 37 34 28 28 26 24 23 22 21 19 19 17 18 17 18 17 17 16 16 18 19 18 20 21 23 22 24 24 23 23 21 17 21 26
19 21 26 30 21 35 36 37 37 38 38 34 32 31 29 26 25 24 22 21 20 20 18 18 19 19 18 16 17 18 19 19 23 24 25 25 26 26 22 24 20 23 24
27 27 32 29 32 30 27 34 36 36 39 40 36 30 31 31 29 29 26 24 23 23 22 20 20 20 20 18 16 17 18 20 22 24 26 28 27 26 24 22 21 26 31
33 38 42 41 34 32 36 35 31 34 37 40 40 37 33 33 33 32 30 28 28 27 26 24 22 22 21 20 18 16 18 20 22 23 25 29 28 25 26 29 26 29 28
37 39 39 36 34 34 34 35 35 33 34 37 40 40 39 37 39 38 35 33 32 32 32 29 26 25 24 22 21 19 18 20 19 21 23 25 29 26 27 29 29 34 29
33 29 32 32 35 38 37 36 37 36 36 34 37 40 41 42 41 41 41 38 37 35 32 34 32 26 27 25 25 23 21 19 19 19 21 23 25 25 27 27 31 35 31
30 28 27 30 34 36 37 37 41 42 40 40 42 39 40 44 45 43 42 45 40 40 36 35 35 33 30 29 29 26 25 21 19 19 21 23 24 24 26 28 25 24 21
27 24 27 30 31 33 37 39 39 39 42 46 48 48 46 45 47 51 47 49 47 45 42 40 39 37 36 33 33 30 28 25 22 19 19 21 23 25 24 26 25 24 20
22 22 25 28 29 31 34 36 40 42 44 45 45 46 47 52 53 56 51 52 51 50 49 46 43 40 38 39 38 34 32 28 25 22 21 20 21 23 23 25 22 21 21
24 24 25 27 29 30 31 33 36 39 43 46 47 51 52 46 50 53 55 56 55 52 51 49 47 45 42 42 43 39 35 33 29 26 25 22 21 21 21 23 21 22 23
27 28 28 28 30 32 34 36 38 39 40 42 47 51 52 55 57 53 57 53 59 60 56 51 52 50 48 44 43 44 39 36 32 29 28 25 25 22 21 22 24 22 22
26 27 30 31 33 35 37 40 42 45 46 47 46 47 51 54 57 60 53 55 53 54 54 54 52 51 51 48 44 45 44 41 34 33 29 28 28 25 25 22 23 23 23

GFSSE_700_spd_117.txt.gz
Wind_Speed
10 8 11 15 15 11 6 5 4 3 5 6 3 3 6 6 6 5 4 6 9 9 9 8 7 6 4 3 1 2 3 4 3 3 1 1 1 3 6 7 8 6 5
9 9 12 18 16 15 10 6 5 5 2 5 3 2 4 6 6 5 3 5 8 10 11 10 8 7 6 4 1 1 3 4 4 2 1 0 2 4 7 5 6 6 5
12 9 13 20 19 18 14 9 9 9 5 1 1 2 3 5 6 5 2 4 7 10 11 11 10 9 8 6 5 3 3 5 5 4 2 2 8 5 4 5 6 5 5
14 12 15 23 21 20 17 14 12 10 6 2 2 4 4 4 5 5 3 3 4 7 10 11 11 10 9 8 6 5 4 5 5 3 3 7 9 5 6 5 8 7 5
15 15 17 23 23 21 20 17 14 12 8 5 5 6 5 4 4 5 5 3 3 4 6 8 9 10 9 8 6 5 4 5 5 5 7 9 10 6 6 5 7 6 6
19 17 21 23 26 24 23 20 17 15 10 7 8 9 7 6 6 6 7 6 5 5 6 7 8 8 8 7 6 5 5 5 5 9 8 8 8 7 4 7 8 7 7
19 17 18 22 26 25 24 22 20 17 12 9 11 11 10 8 7 7 8 8 7 7 6 8 8 9 9 9 8 6 6 6 8 8 8 10 18 9 7 8 10 10 9
19 21 20 22 26 28 26 25 23 20 15 12 13 12 12 11 9 8 9 9 9 8 8 8 9 9 10 10 9 7 7 6 9 8 10 11 15 12 8 8 10 12 11
21 23 22 21 27 29 29 27 25 23 19 15 14 14 13 13 12 10 9 9 9 9 9 9 9 10 10 11 11 9 9 7 11 7 10 8 4 10 8 9 11 12 11
23 25 26 23 25 29 30 29 27 26 22 18 17 16 16 15 15 13 11 9 9 9 10 10 11 11 12 12 11 11 11 9 11 11 11 9 8 7 7 9 12 13 14
21 26 28 26 25 28 30 31 30 29 27 22 20 18 17 16 15 15 13 11 10 10 10 10 11 12 12 13 12 12 11 11 12 15 11 14 15 10 10 16 12 14 15
26 28 29 32 30 28 30 33 33 32 30 25 22 20 18 17 16 16 16 14 12 11 11 10 11 13 12 13 13 13 13 13 17 16 17 14 13 15 14 12 11 15 19
22 23 28 34 37 33 30 32 34 34 32 28 24 22 21 19 19 18 18 16 14 13 12 11 12 12 14 14 14 14 13 15 19 17 18 15 17 14 14 15 10 13 15
25 27 28 27 33 38 34 34 34 36 34 32 27 25 23 21 20 20 18 18 17 15 14 14 12 14 14 15 14 13 14 15 18 16 17 18 15 12 16 16 13 15 16
26 26 27 30 28 29 37 39 40 35 36 35 32 28 26 24 23 21 21 19 19 18 17 16 16 16 16 15 16 14 13 14 19 18 16 17 15 19 17 17 20 17 19
29 28 31 34 36 32 28 34 36 38 38 38 37 33 29 28 27 26 24 22 21 20 20 19 17 17 18 18 16 14 13 14 14 17 19 18 19 18 18 18 20 20 20
31 31 33 33 31 34 34 24 41 39 32 36 35 36 33 30 28 29 28 26 24 24 24 21 20 20 20 19 18 15 14 15 15 16 20 20 19 19 19 18 20 22 20
32 36 38 33 33 34 34 39 39 25 32 36 35 38 40 34 31 31 32 31 29 29 28 26 23 22 21 21 19 18 16 15 15 17 19 19 19 20 20 20 22 24 28
37 38 41 39 38 35 32 32 30 32 33 37 37 39 40 38 35 35 35 34 32 33 32 29 27 26 24 23 22 20 19 17 15 16 18 17 17 16 19 21 22 25 26
35 38 38 37 38 38 36 34 32 33 33 35 34 35 36 37 38 39 39 37 35 37 36 33 31 29 27 26 26 24 24 20 19 16 16 17 15 13 16 19 21 23 24
34 36 37 34 32 34 35 32 32 35 37 37 38 38 37 38 37 41 44 43 40 41 39 38 34 32 30 29 30 30 29 25 22 20 17 15 16 14 15 19 21 22 24
36 36 34 37 32 29 30 32 33 33 35 38 41 42 42 42 44 43 44 46 44 48 44 41 39 35 33 33 33 32 33 31 27 24 20 17 17 16 14 18 21 23 23
35 32 34 32 27 27 27 30 33 34 35 37 39 42 44 45 47 46 47 49 48 51 50 44 40 38 37 36 37 35 36 36 31 28 25 21 19 19 16 17 20 22 23
23 22 28 26 25 27 28 30 32 34 36 37 39 41 43 45 48 50 52 53 49 51 49 52 47 43 42 40 39 38 35 36 37 34 30 26 24 21 20 19 19 21 22
18 23 25 27 28 29 30 32 33 35 37 38 39 42 43 44 47 49 51 53 55 55 57 52 46 42 46 44 43 42 40 38 38 39 36 31 28 23 22 21 21 21 22
23 23 29 27 28 31 33 35 37 39 39 41 41 43 43 44 47 50 53 55 55 54 51 52 54 52 49 48 49 46 44 42 38 39 39 36 30 26 25 25 22 21 22